Location: Newark
(45.0500°N, 41.9667°E)
Time: 09:30:59
(UTC+00:00)

Starlink (trailer) - Pass Details

Date: 29 July 2019
Orbit: 549 x 550 km, 53.0° (Epoch: 19 August)

Event Time Altitude Azimuth Distance (km) Brightness Sun altitude
Rises 20:35:46 0° 263° (W) 2,714 7.2 -25.5°
Reaches altitude 10° 20:38:07 10° 272° (W) 1,822 6.4 -25.6°
Maximum altitude 20:42:00 38° 341° (NNW) 855 5.0 -25.7°
Drops below altitude 10° 20:45:53 10° 51° (NE) 1,827 6.6 -25.9°
Sets 20:48:15 0° 59° (ENE) 2,723 7.5 -25.9°
